GW0996 Weather Reports


time (UTC)temp
F
wind
direction
speed
knots
gust
knots
rain 1hr
in
rain 24hr
in
rain mn
in
humidity
%
barometer
mb
20260904144021 94 166 0.0 8.7 0.00 0.00 0.00 31 1016.2
20260904143530 95 318 1.7 8.7 0.00 0.00 0.00 31 1016.1
20260904143024 94 322 1.7 7.0 0.00 0.00 0.00 31 1016.3
20260904142522 94 305 3.5 7.8 0.00 0.00 0.00 30 1016.4
20260904142024 94 327 2.6 7.8 0.00 0.00 0.00 31 1016.3
20260904141521 94 319 2.6 7.0 0.00 0.00 0.00 31 1016.5
20260904141022 94 322 3.5 9.6 0.00 0.00 0.00 31 1016.4
20260904140527 94 342 0.0 9.6 0.00 0.00 0.00 31 1016.3
20260904140026 94 305 0.0 7.0 0.00 0.00 0.00 32 1016.4
20260904135526 95 322 3.5 9.6 0.00 0.00 0.00 32 1016.6
20260904135028 96 317 0.9 9.6 0.00 0.00 0.00 32 1016.6
20260904134526 97 318 1.7 8.7 0.00 0.00 0.00 32 1016.5
20260904134022 99 317 2.6 8.7 0.00 0.00 0.00 29 1016.6
20260904133027 100 147 0.0 0.9 0.00 0.00 0.00 25 1016.5
20260904132522 100 152 0.0 1.7 0.00 0.00 0.00 26 1016.5
20260904132025 99 348 0.0 5.2 0.00 0.00 0.00 26 1016.6
20260904131525 100 331 0.9 5.2 0.00 0.00 0.00 26 1016.5
20260904131029 100 241 0.0 1.7 0.00 0.00 0.00 24 1016.6
20260904130527 99 214 0.0 1.7 0.00 0.00 0.00 24 1016.6
20260904130028 99 355 0.9 1.7 0.00 0.00 0.00 25 1016.6
20260904125526 98 142 0.9 1.7 0.00 0.00 0.00 24 1016.8
20260904125033 99 46 0.0 1.7 0.00 0.00 0.00 26 1017.0
20260904124525 99 97 1.7 1.7 0.00 0.00 0.00 25 1016.7
20260904124024 99 228 0.9 1.7 0.00 0.00 0.00 25 1016.9
20260904123527 99 205 0.0 0.9 0.00 0.00 0.00 24 1017.1
20260904123026 99 162 0.0 0.9 0.00 0.00 0.00 26 1017.0
20260904122525 99 159 0.0 1.7 0.00 0.00 0.00 26 1016.9
20260904122010 98 150 0.0 1.7 0.00 0.00 0.00 26 1016.9
20260904121512 97 216 0.0 2.6 0.00 0.00 0.00 25 1017.2
20260904120958 97 148 0.0 2.6 0.00 0.00 0.00 26 1017.2
20260904120457 97 315 0.0 2.6 0.00 0.00 0.00 26 1017.3
20260904120007 97 131 0.0 1.7 0.00 0.00 0.00 24 1017.1
20260904115449 97 307 0.0 1.7 0.00 0.00 0.00 26 1017.2
20260904114948 98 306 0.9 3.5 0.00 0.00 0.00 24 1017.4
20260904114448 97 183 0.0 3.5 0.00 0.00 0.00 24 1017.4
20260904113939 96 241 0.0 1.7 0.00 0.00 0.00 23 1017.5
20260904112439 96 200 1.7 3.5 0.00 0.00 0.00 25 1017.8
20260904111437 96 276 0.0 1.7 0.00 0.00 0.00 27 1017.6
20260904110436 97 86 1.7 1.7 0.00 0.00 0.00 27 1018.0
20260904105937 95 135 0.9 1.7 0.00 0.00 0.00 27 1018.0
20260904105439 96 264 0.0 1.7 0.00 0.00 0.00 27 1017.9
20260904104937 96 146 0.9 2.6 0.00 0.00 0.00 28 1017.9
20260904104434 95 304 0.9 2.6 0.00 0.00 0.00 28 1017.9
20260904103936 96 221 0.0 1.7 0.00 0.00 0.00 28 1018.1
20260904103437 95 295 0.0 0.9 0.00 0.00 0.00 27 1018.2
20260904102424 95 162 0.0 0.9 0.00 0.00 0.00 32 1018.4
20260904101925 95 163 0.0 0.9 0.00 0.00 0.00 29 1018.3
20260904101426 94 163 0.0 0.9 0.00 0.00 0.00 31 1018.4
20260904100924 93 178 0.9 0.9 0.00 0.00 0.00 33 1018.6
20260904100425 93 145 0.9 0.9 0.00 0.00 0.00 33 1018.6
20260904095425 92 134 0.0 0.9 0.00 0.00 0.00 36 1018.4
20260904094424 91 134 0.0 0.9 0.00 0.00 0.00 39 1018.5
20260904093924 91 134 0.0 0.9 0.00 0.00 0.00 39 1018.6
20260904093421 89 135 0.0 0.9 0.00 0.00 0.00 41 1018.9
20260904092924 89 135 0.9 0.9 0.00 0.00 0.00 42 1018.9
20260904092422 89 136 0.0 0.9 0.00 0.00 0.00 42 1018.8
20260904091925 89 128 0.0 0.9 0.00 0.00 0.00 45 1018.8
20260904091424 88 128 0.0 0.0 0.00 0.00 0.00 42 1019.0
20260904090925 87 128 0.0 0.9 0.00 0.00 0.00 43 1018.9
20260904090422 87 128 0.9 0.9 0.00 0.00 0.00 42 1019.0
20260904085930 87 130 0.0 0.0 0.00 0.00 0.00 44 1019.1
20260904085422 86 130 0.0 0.9 0.00 0.00 0.00 45 1019.1
20260904084921 85 130 0.0 0.9 0.00 0.00 0.00 43 1019.1
20260904084424 86 292 0.0 0.0 0.00 0.00 0.00 43 1019.0
20260904083422 84 292 0.0 0.0 0.00 0.00 0.00 45 1019.1
20260904082421 83 292 0.0 0.0 0.00 0.00 0.00 53 1019.2
20260904081421 81 291 0.0 0.0 0.00 0.00 0.00 53 1019.0
20260904080921 80 291 0.0 0.0 0.00 0.00 0.00 57 1019.0
20260904080424 80 291 0.0 0.9 0.00 0.00 0.00 57 1019.0
20260904075920 79 292 0.0 0.9 0.00 0.00 0.00 55 1019.0
20260904075430 78 292 0.0 0.0 0.00 0.00 0.00 58 1019.1
20260904074921 78 292 0.0 0.0 0.00 0.00 0.00 58 1019.1
20260904074422 77 291 0.0 0.0 0.00 0.00 0.00 59 1018.9
20260904073920 76 292 0.0 0.0 0.00 0.00 0.00 61 1019.0
20260904072921 77 289 0.0 0.0 0.00 0.00 0.00 60 1018.9
20260904072420 75 289 0.0 0.0 0.00 0.00 0.00 60 1019.1
20260904071928 73 289 0.0 0.0 0.00 0.00 0.00 65 1019.1
20260904071423 72 289 0.0 0.0 0.00 0.00 0.00 66 1019.1
20260904070924 71 289 0.0 0.0 0.00 0.00 0.00 69 1019.1
20260904065923 70 289 0.0 0.0 0.00 0.00 0.00 69 1019.1
20260904065425 69 289 0.0 0.0 0.00 0.00 0.00 72 1019.1
20260904064921 69 289 0.0 0.0 0.00 0.00 0.00 72 1019.0
20260904064421 68 289 0.0 0.0 0.00 0.00 0.00 73 1018.9
20260904063923 68 289 0.0 0.0 0.00 0.00 0.00 73 1019.0
20260904063346 67 289 0.0 0.0 0.00 0.00 0.00 73 1018.8
20260904062847 67 289 0.0 0.0 0.00 0.00 0.00 74 1019.0
20260904061837 67 289 0.0 0.0 0.00 0.00 0.00 73 1018.9
20260904061339 66 289 0.0 0.0 0.00 0.00 0.00 76 1018.8
20260904060832 65 289 0.0 0.0 0.00 0.00 0.00 76 1018.8
20260904055835 64 289 0.0 0.0 0.00 0.00 0.00 78 1018.9
20260904055339 64 288 0.0 0.9 0.00 0.00 0.00 79 1018.9
20260904054338 61 290 0.0 0.0 0.00 0.00 0.00 84 1018.8
20260904053837 60 291 0.0 0.9 0.00 0.00 0.00 86 1018.9
20260904053336 60 291 0.0 0.9 0.00 0.00 0.00 86 1018.9
20260904052837 60 291 0.9 0.9 0.00 0.00 0.00 87 1019.0
20260904052338 59 291 0.0 0.0 0.00 0.00 0.00 87 1018.9
20260904051836 59 291 0.0 0.0 0.00 0.00 0.00 86 1018.9
20260904051338 59 291 0.0 0.0 0.00 0.00 0.00 86 1018.9
20260904050838 59 291 0.0 0.0 0.00 0.00 0.00 86 1018.7
20260904050335 60 291 0.0 0.0 0.00 0.00 0.00 85 1018.7
20260904045840 60 291 0.0 0.0 0.00 0.00 0.00 85 1018.8
20260904045336 60 291 0.0 0.0 0.00 0.00 0.00 85 1018.9
20260904044836 60 291 0.0 0.0 0.00 0.00 0.00 85 1018.6
20260904044335 60 291 0.0 0.0 0.00 0.00 0.00 85 1018.7
20260904043834 60 291 0.0 0.0 0.00 0.00 0.00 85 1018.7
20260904043337 60 291 0.0 0.0 0.00 0.00 0.00 85 1018.7
20260904042325 60 291 0.0 0.0 0.00 0.00 0.00 84 1018.7
20260904041825 60 291 0.0 0.9 0.00 0.00 0.00 83 1018.5
20260904041303 60 291 0.0 0.9 0.00 0.00 0.00 84 1018.4
20260904040756 60 291 0.0 0.0 0.00 0.00 0.00 84 1018.5
20260904040242 60 291 0.0 0.0 0.00 0.00 0.00 84 1018.5
20260904035732 60 291 0.0 0.0 0.00 0.00 0.00 84 1018.4
20260904035222 60 291 0.0 0.0 0.00 0.00 0.00 84 1018.4
20260904034720 60 291 0.0 0.0 0.00 0.00 0.00 83 1018.6
20260904034226 60 291 0.0 0.0 0.00 0.00 0.00 83 1018.5
20260904033721 61 291 0.0 0.0 0.00 0.00 0.00 82 1018.6
20260904033215 61 291 0.0 0.0 0.00 0.00 0.00 83 1018.4
20260904032709 60 291 0.0 0.0 0.00 0.00 0.00 83 1018.3
20260904032210 61 291 0.0 0.0 0.00 0.00 0.00 82 1018.5
20260904031703 61 293 0.0 0.0 0.00 0.00 0.00 81 1018.4
20260904031157 61 293 0.0 0.0 0.00 0.00 0.00 81 1018.4
20260904030649 61 293 0.0 0.0 0.00 0.00 0.00 81 1018.4
20260904030139 61 293 0.0 0.0 0.00 0.00 0.00 81 1018.2
20260904025623 62 293 0.0 0.0 0.00 0.00 0.00 80 1018.3
20260904025126 62 293 0.0 0.0 0.00 0.00 0.00 80 1018.2
20260904024620 62 293 0.0 0.9 0.00 0.00 0.00 79 1018.2
20260904024122 62 293 0.0 0.9 0.00 0.00 0.00 79 1018.3
20260904023616 62 293 0.0 1.7 0.00 0.00 0.00 79 1018.2
20260904022553 62 291 0.0 0.9 0.00 0.00 0.00 78 1018.4
20260904022047 62 291 0.0 0.9 0.00 0.00 0.00 78 1018.3
20260904021525 62 291 0.0 0.9 0.00 0.00 0.00 78 1018.4
20260904021024 62 290 0.0 0.0 0.00 0.00 0.00 78 1018.2
20260904020521 63 290 0.0 0.0 0.00 0.00 0.00 78 1018.2
20260904020023 63 290 0.0 0.0 0.00 0.00 0.00 77 1018.2
20260904015521 63 291 0.0 0.0 0.00 0.00 0.00 77 1018.2
20260904014524 64 291 0.0 0.0 0.00 0.00 0.00 75 1018.2
20260904014017 64 291 0.0 0.0 0.00 0.00 0.00 75 1018.4
20260904013510 63 291 0.0 0.0 0.00 0.00 0.00 75 1018.3
20260904013013 63 290 0.0 0.0 0.00 0.00 0.00 76 1018.3
20260904012503 63 290 0.0 0.0 0.00 0.00 0.00 76 1018.0
20260904011957 63 290 0.0 0.0 0.00 0.00 0.00 76 1018.3
20260904011457 64 290 0.0 0.0 0.00 0.00 0.00 76 1018.2
20260904010945 64 291 0.0 0.0 0.00 0.00 0.00 75 1018.1
20260904010444 63 291 0.0 0.0 0.00 0.00 0.00 76 1018.3
20260904005947 63 291 0.0 0.0 0.00 0.00 0.00 77 1018.3
20260904005444 63 291 0.0 0.0 0.00 0.00 0.00 76 1018.2
20260904004937 63 291 0.0 0.9 0.00 0.00 0.00 76 1018.3
20260904004433 63 291 0.0 0.9 0.00 0.00 0.00 75 1018.0
20260904003933 63 290 0.0 0.0 0.00 0.00 0.00 76 1018.3
20260904001923 64 290 0.0 0.0 0.00 0.00 0.00 73 1018.2
20260904001420 64 291 0.0 0.0 0.00 0.00 0.00 72 1018.5
20260904000425 64 291 0.0 0.0 0.00 0.00 0.00 72 1018.1
20260903235423 65 291 0.0 0.0 0.00 0.00 0.00 71 1018.2
20260903234921 65 291 0.0 0.9 0.00 0.00 0.00 70 1018.2
20260903234411 65 292 0.0 0.9 0.00 0.00 0.00 70 1018.4
20260903233909 65 291 0.0 0.0 0.00 0.00 0.00 69 1018.2
20260903232847 65 291 0.0 0.0 0.00 0.00 0.00 69 1017.9
20260903232349 66 291 0.0 0.0 0.00 0.00 0.00 68 1018.0
20260903231840 66 291 0.0 1.7 0.00 0.00 0.00 67 1018.1
20260903231342 66 292 0.0 1.7 0.00 0.00 0.00 66 1018.1
20260903230349 67 239 0.0 0.9 0.00 0.00 0.00 66 1018.2
20260903225837 67 240 0.0 0.9 0.00 0.00 0.00 65 1018.0
20260903225342 67 240 0.9 0.9 0.00 0.00 0.00 66 1018.0
20260903224324 67 285 0.0 0.9 0.00 0.00 0.00 64 1017.8
20260903223824 67 299 0.0 0.9 0.00 0.00 0.00 65 1017.9
20260903223327 67 299 0.0 1.7 0.00 0.00 0.00 65 1017.9
20260903222314 68 298 0.0 0.9 0.00 0.00 0.00 65 1017.8
20260903221812 68 299 0.0 0.9 0.00 0.00 0.00 64 1017.9
20260903221258 67 299 0.0 0.9 0.00 0.00 0.00 63 1017.9
20260903220757 68 299 0.0 0.0 0.00 0.00 0.00 64 1017.7
20260903220257 68 299 0.0 0.0 0.00 0.00 0.00 65 1017.6
20260903215745 68 299 0.0 0.9 0.00 0.00 0.00 63 1017.6
20260903215245 68 299 0.0 0.9 0.00 0.00 0.00 64 1017.6
20260903214233 69 301 0.0 0.9 0.00 0.00 0.00 65 1017.3
20260903213736 69 301 0.0 0.9 0.00 0.00 0.00 65 1017.3
20260903213233 69 300 0.0 0.0 0.00 0.00 0.00 65 1017.5
20260903212733 69 300 0.0 0.9 0.00 0.00 0.00 65 1017.6
20260903212222 69 305 0.0 0.9 0.00 0.00 0.00 65 1017.4
20260903211721 70 305 0.0 0.9 0.00 0.00 0.00 65 1017.4
20260903211216 70 305 0.0 0.9 0.00 0.00 0.00 65 1017.4
20260903210708 70 305 0.0 0.0 0.00 0.00 0.00 64 1017.4
20260903205200 71 305 0.0 0.9 0.00 0.00 0.00 63 1017.3
20260903204657 71 307 0.0 1.7 0.00 0.00 0.00 63 1017.1
20260903204152 72 309 0.0 2.6 0.00 0.00 0.00 63 1017.2
20260903203646 72 310 0.0 2.6 0.00 0.00 0.00 63 1017.0
20260903203145 71 310 0.9 1.7 0.00 0.00 0.00 64 1017.1
20260903202639 71 315 0.0 0.0 0.00 0.00 0.00 65 1017.1
20260903202132 71 315 0.0 0.0 0.00 0.00 0.00 64 1017.1
20260903201635 71 315 0.0 0.0 0.00 0.00 0.00 64 1017.0
20260903201133 72 315 0.0 0.0 0.00 0.00 0.00 63 1016.8
20260903200636 72 315 0.0 0.0 0.00 0.00 0.00 62 1016.9
20260903200138 73 315 0.0 0.0 0.00 0.00 0.00 62 1016.8
20260903195635 73 315 0.0 0.0 0.00 0.00 0.00 61 1017.0
20260903195135 74 315 0.0 0.0 0.00 0.00 0.00 60 1016.9
20260903194638 74 315 0.0 0.9 0.00 0.00 0.00 60 1016.8
20260903194134 74 315 0.0 0.9 0.00 0.00 0.00 59 1016.8
20260903192622 75 326 0.0 0.9 0.00 0.00 0.00 57 1017.0
20260903191622 77 324 0.0 0.9 0.00 0.00 0.00 56 1016.9
20260903191121 78 324 0.0 0.9 0.00 0.00 0.00 55 1016.8
20260903190623 78 324 0.0 0.9 0.00 0.00 0.00 53 1016.9
20260903190124 79 323 0.0 0.9 0.00 0.00 0.00 52 1016.8
20260903185624 80 323 0.0 0.9 0.00 0.00 0.00 50 1016.7
20260903184553 82 312 0.0 0.9 0.00 0.00 0.00 47 1016.5
20260903183551 84 312 0.0 1.7 0.00 0.00 0.00 44 1016.4
20260903181526 86 333 3.5 5.2 0.00 0.00 0.00 41 1016.0
20260903181021 86 318 0.9 5.2 0.00 0.00 0.00 40 1015.8
20260903180520 87 299 0.9 6.1 0.00 0.00 0.00 40 1015.9
20260903180023 87 315 1.7 6.1 0.00 0.00 0.00 39 1015.7
20260903175023 88 306 0.0 5.2 0.00 0.00 0.00 37 1015.8
20260903174526 88 312 0.0 6.1 0.00 0.00 0.00 36 1015.6
20260903174023 89 325 1.7 6.1 0.00 0.00 0.00 35 1015.6
20260903173524 89 308 3.5 6.1 0.00 0.00 0.00 35 1015.5
20260903173026 88 312 0.9 3.5 0.00 0.00 0.00 36 1015.7
20260903172524 89 296 0.0 3.5 0.00 0.00 0.00 36 1015.4
20260903172012 89 301 1.7 3.5 0.00 0.00 0.00 35 1015.4
20260903170945 89 313 0.9 3.5 0.00 0.00 0.00 35 1015.4
20260903170445 89 306 2.6 3.5 0.00 0.00 0.00 34 1015.3
20260903165954 90 281 0.0 6.1 0.00 0.00 0.00 34 1015.1
20260903165438 90 287 0.0 7.0 0.00 0.00 0.00 34 1015.1
20260903164934 90 317 0.9 7.0 0.00 0.00 0.00 33 1015.2
20260903164433 91 314 0.9 5.2 0.00 0.00 0.00 34 1015.1
20260903162936 91 304 0.9 5.2 0.00 0.00 0.00 32 1015.2
20260903162437 91 314 0.0 5.2 0.00 0.00 0.00 32 1015.4
20260903161937 91 297 2.6 5.2 0.00 0.00 0.00 31 1015.1
20260903161439 91 341 2.6 5.2 0.00 0.00 0.00 32 1015.2
20260903160934 92 305 0.0 3.5 0.00 0.00 0.00 32 1015.1
20260903160435 92 284 3.5 3.5 0.00 0.00 0.00 31 1015.2
20260903155924 92 308 0.9 3.5 0.00 0.00 0.00 31 1015.2
20260903155426 92 315 1.7 3.5 0.00 0.00 0.00 31 1015.2
20260903154922 92 305 1.7 3.5 0.00 0.00 0.00 31 1015.1
20260903154423 92 30 0.9 1.7 0.00 0.00 0.00 32 1015.0
20260903153924 92 105 0.0 1.7 0.00 0.00 0.00 31 1015.0
20260903153422 92 87 0.0 2.6 0.00 0.00 0.00 31 1015.1
20260903152924 92 352 0.9 3.5 0.00 0.00 0.00 31 1015.2
20260903152410 92 47 0.0 5.2 0.00 0.00 0.00 32 1015.3
20260903151907 92 91 0.9 7.0 0.00 0.00 0.00 30 1015.2
20260903151408 92 307 1.7 7.0 0.00 0.00 0.00 30 1015.0
20260903150855 92 331 4.3 6.1 0.00 0.00 0.00 30 1015.3
20260903150356 92 335 3.5 5.2 0.00 0.00 0.00 31 1015.4
20260903145856 93 306 0.0 5.2 0.00 0.00 0.00 32 1015.5
20260903145352 93 30 0.0 3.5 0.00 0.00 0.00 33 1015.4